Preview of NWS' New Version of Forecast
This preview is not operational and should not be used for support decisions.

Regional Weather Roundup (RWR)

Issued by National Weather Service (NWS)

                            
000
ASUS46 KPQR 201310
RWROR 

OREGON REGIONAL WEATHER ROUNDUP
NATIONAL WEATHER SERVICE PORTLAND OR
600 AM PDT TUE AUG 20 2019

NOTE: "FAIR" INDICATES FEW OR NO CLOUDS BELOW 12,000 FEET WITH
NO SIGNIFICANT WEATHER AND/OR OBSTRUCTIONS TO VISIBILITY.

ORZ001>013-201400-
NORTHWEST OREGON

  
CITY           SKY/WX    TMP DP  RH WIND       PRES   REMARKS
ASTORIA        CLEAR     52  50  93 SE5       29.92R                  
TILLAMOOK      CLEAR     50  48  93 CALM      29.95R                  
NEWPORT        CLEAR     48  48 100 S3        29.99R                  
FLORENCE       CLOUDY    54  54 100 CALM      29.97R                  
PORTLAND       PTCLDY    59  55  87 CALM      29.93S                  
VANCOUVER WA   CLEAR     55  52  89 CALM      29.93S                  
SCAPPOOSE      CLEAR     53  52  96 CALM      29.93R                  
HILLSBORO      CLEAR     50  48  93 CALM      29.93S                  
AURORA         CLEAR     56  52  86 CALM      29.94S                  
MCMINNVILLE    CLEAR     52  50  93 NW3       29.93S                  
SALEM          CLEAR     54  51  90 CALM      29.92S                  
CORVALLIS      CLEAR     52  50  93 CALM      29.94S                  
EUGENE         CLEAR     55  51  86 S3        29.95S                  
CRESWELL       MOCLDY    52  52 100 CALM      29.94S                  
$$

ORZ021-028-201400-
SOUTHWEST OREGON

  
CITY           SKY/WX    TMP DP  RH WIND       PRES   REMARKS
NORTH BEND     CLOUDY    55  55 100 S3        30.00R FOG              
BROOKINGS      LGT RAIN  52  52 100 CALM      30.01R VSB 1/4          
ROSEBURG       CLEAR     61  55  81 CALM      29.95S                  
SEXTON SUMMIT  CLEAR     61  53  75 SE9       30.04F                  
GRANTS PASS    FAIR      59  52  77 CALM      29.99R                  
MEDFORD        CLEAR     62  51  67 CALM      29.96S                  
$$

ORZ014>016-041-201400-
COLUMBIA GORGE

  
CITY           SKY/WX    TMP DP  RH WIND       PRES   REMARKS
TROUTDALE      CLEAR     55  51  86 E3        29.93S                  
HOOD RIVER     CLEAR     52  45  76 S3        29.94S                  
THE DALLES     CLEAR     61  53  75 NW8       29.91R                  
$$

ORZ029>031-041-044-049-050-061>064-502-503-505>511-201400-
EASTERN OREGON

  
CITY           SKY/WX    TMP DP  RH WIND       PRES   REMARKS
MADRAS         CLEAR     52  45  76 S3        30.01R                  
REDMOND        CLEAR     54  45  71 SE5       30.01S                  
BEND           CLEAR     59  46  63 SW8       30.02S                  
PRINEVILLE     CLEAR     50  45  81 CALM      30.03R                  
KLAMATH FALLS  CLEAR     48  44  86 CALM      30.08S                  
LAKEVIEW       CLEAR     38  31  76 N7        30.14R                  
HERMISTON      CLEAR     59  47  64 SE3       29.90S                  
PENDLETON      CLEAR     58  44  60 E8        29.94R                  
JOHN DAY       PTCLDY    58  40  51 SE9       30.05S                  
MEACHAM        CLEAR     42  38  85 CALM      30.06R                  
LA GRANDE      CLEAR     48  43  82 CALM      30.03R                  
BAKER CITY     CLEAR     51  46  83 N3        30.04S                  
BURNS          MOCLDY    50  35  56 N3        30.07R                  
ROME             N/A     54  27  35 S7        30.04R                  
ONTARIO        CLEAR     63  46  54 W6        29.95R                  
$$